Weather History for Soldotna, AK

Change the Weather History Date:

Sunday, April 6, 2014

  Actual Average Record
Temperature  
Mean Temperature 36 °F -  
Max Temperature 44 °F 38 °F 50 °F (1963)
Min Temperature 28 °F 22 °F 0 °F (1986)
Degree Days  
Heating Degree Days 29    
Moisture  
Dew Point 29 °F    
Average Humidity 75    
Maximum Humidity 93    
Minimum Humidity 49    
Precipitation  
Precipitation 0.01 in - - ()
Sea Level Pressure  
Sea Level Pressure 29.52 in    
Wind  
Wind Speed 2 mph (WNW)    
Max Wind Speed 13 mph    
Max Gust Speed -    
Visibility 10 miles    
Events      
Averages and records for this station are not official NWS values.
T = Trace of Precipitation, MM = Missing Value Source: NWS Daily Summary

Daily Weather History Graph

Daily Weather History Graph

Search for Another Location

Airport:

Trip Planner

Search our weather history database for the weather conditions in past years. The results will help you decide how hot, cold, wet, or windy it might be!

Date:

Astronomy

Apr. 06, 2014 Rise Set
Actual Time 7:12 AM AKDT 9:01 PM AKDT
Civil Twilight 6:27 AM AKDT 9:46 PM AKDT
Nautical Twilight 5:31 AM AKDT 10:44 PM AKDT
Astronomical Twilight 4:20 AM AKDT 11:56 PM AKDT
Moon 11:31 AM AKDT (4/6) 3:57 AM AKDT (4/6)
Length of Visible Light 15h 18m
Length of Day
13h 49m
Waxing Crescent, 45% of the Moon is Illuminated
Apr 6
Waxing Crescent
Apr 7
First Quarter
Apr 14
Full
Apr 21
Last Quarter
Apr 28
New

Hourly Weather History & Observations

Time (AKDT) Temp. Windchill Dew Point Humidity Pressure Visibility Wind Dir Wind Speed Gust Speed Precip Events Conditions
12:16 AM 35.6 °F - 30.2 °F 81% 29.44 in 10.0 mi Calm Calm - N/A   Overcast
12:36 AM 35.6 °F - 30.2 °F 81% 29.44 in 10.0 mi Calm Calm - N/A   Overcast
12:56 AM 35.6 °F - 30.2 °F 81% 29.45 in 10.0 mi Calm Calm - N/A   Overcast
1:16 AM 35.6 °F - 30.2 °F 81% 29.46 in 10.0 mi Calm Calm - N/A   Overcast
1:36 AM 35.6 °F - 30.2 °F 81% 29.46 in 10.0 mi Calm Calm - N/A   Overcast
1:56 AM 35.6 °F - 30.2 °F 81% 29.47 in 10.0 mi Calm Calm - N/A   Overcast
2:16 AM 35.6 °F - 30.2 °F 81% 29.47 in 10.0 mi Calm Calm - N/A   Overcast
2:36 AM 35.6 °F - 30.2 °F 81% 29.47 in 10.0 mi Calm Calm - N/A   Overcast
2:56 AM 33.8 °F - 30.2 °F 87% 29.48 in 10.0 mi Calm Calm - N/A   Overcast
3:16 AM 33.8 °F - 30.2 °F 87% 29.48 in 10.0 mi Calm Calm - N/A   Overcast
3:36 AM 33.8 °F - 30.2 °F 87% 29.48 in 10.0 mi Calm Calm - N/A   Overcast
3:56 AM 33.8 °F - 30.2 °F 87% 29.48 in 10.0 mi Calm Calm - N/A   Overcast
4:16 AM 33.8 °F - 30.2 °F 87% 29.49 in 10.0 mi Calm Calm - N/A   Overcast
4:36 AM 33.8 °F - 30.2 °F 87% 29.49 in 10.0 mi Calm Calm - N/A   Overcast
4:56 AM 33.8 °F - 28.4 °F 81% 29.49 in 10.0 mi Calm Calm - N/A   Overcast
5:16 AM 32.0 °F - 28.4 °F 87% 29.49 in 10.0 mi Calm Calm - N/A   Overcast
5:36 AM 30.2 °F - 28.4 °F 93% 29.49 in 10.0 mi Calm Calm - N/A   Overcast
5:56 AM 30.2 °F - 28.4 °F 93% 29.50 in 10.0 mi Calm Calm - N/A   Overcast
6:16 AM 30.2 °F 26.7 °F 26.6 °F 86% 29.50 in 10.0 mi East 3.5 mph - N/A   Overcast
6:36 AM 28.4 °F - 26.6 °F 93% 29.50 in 10.0 mi Calm Calm - N/A   Overcast
6:56 AM 30.2 °F - 28.4 °F 93% 29.51 in 10.0 mi Calm Calm - N/A   Overcast
7:16 AM 30.2 °F - 26.6 °F 86% 29.52 in 10.0 mi Calm Calm - N/A   Mostly Cloudy
7:36 AM 28.4 °F - 26.6 °F 93% 29.52 in 10.0 mi Calm Calm - N/A   Scattered Clouds
7:56 AM 28.4 °F - 24.8 °F 86% 29.52 in 10.0 mi Calm Calm - N/A   Scattered Clouds
8:16 AM 28.4 °F - 26.6 °F 93% 29.52 in 10.0 mi Calm Calm - N/A   Partly Cloudy
8:36 AM 30.2 °F - 26.6 °F 86% 29.53 in 10.0 mi Calm Calm - N/A   Clear
8:56 AM 30.2 °F - 26.6 °F 86% 29.53 in 10.0 mi Calm Calm - N/A   Clear
9:16 AM 30.2 °F - 28.4 °F 93% 29.53 in 10.0 mi Calm Calm - N/A   Clear
9:36 AM 33.8 °F - 28.4 °F 81% 29.54 in 10.0 mi Calm Calm - N/A   Clear
9:56 AM 35.6 °F - 30.2 °F 81% 29.54 in 10.0 mi Calm Calm - N/A   Clear
10:16 AM 37.4 °F - 30.2 °F 75% 29.54 in 10.0 mi Calm Calm - N/A   Clear
10:36 AM 39.2 °F - 30.2 °F 70% 29.54 in 10.0 mi Calm Calm - N/A   Clear
10:56 AM 39.2 °F 37.0 °F 30.2 °F 70% 29.54 in 10.0 mi WNW 3.5 mph - N/A   Clear
11:16 AM 41.0 °F 37.1 °F 28.4 °F 61% 29.54 in 10.0 mi WNW 5.8 mph - N/A   Clear
11:36 AM 42.8 °F 40.1 °F 28.4 °F 57% 29.55 in 10.0 mi NW 4.6 mph - N/A   Clear
11:56 AM 42.8 °F 40.1 °F 28.4 °F 57% 29.55 in 10.0 mi West 4.6 mph - N/A   Clear
12:16 PM 42.8 °F 40.1 °F 28.4 °F 57% 29.55 in 10.0 mi NW 4.6 mph - N/A   Clear
12:36 PM 42.8 °F 40.1 °F 28.4 °F 57% 29.55 in 10.0 mi WNW 4.6 mph - N/A   Scattered Clouds
12:56 PM 42.8 °F 38.6 °F 28.4 °F 57% 29.55 in 10.0 mi West 6.9 mph - N/A   Mostly Cloudy
1:16 PM 42.8 °F 41.1 °F 30.2 °F 61% 29.55 in 10.0 mi NW 3.5 mph - N/A   Overcast
1:36 PM 44.6 °F 40.7 °F 30.2 °F 57% 29.55 in 10.0 mi West 6.9 mph - N/A   Mostly Cloudy
1:56 PM 44.6 °F 40.2 °F 30.2 °F 57% 29.55 in 10.0 mi WNW 8.1 mph - N/A   Mostly Cloudy
2:16 PM 42.8 °F 38.0 °F 30.2 °F 61% 29.55 in 10.0 mi WNW 8.1 mph - N/A   Overcast
2:36 PM 42.8 °F 40.1 °F 30.2 °F 61% 29.55 in 10.0 mi NW 4.6 mph - N/A   Overcast
2:56 PM 42.8 °F - 30.2 °F 61% 29.55 in 10.0 mi Calm Calm - 0.01 in   Overcast
3:16 PM 44.6 °F 42.2 °F 30.2 °F 57% 29.55 in 10.0 mi NW 4.6 mph - N/A   Overcast
3:36 PM 44.6 °F 43.1 °F 26.6 °F 49% 29.55 in 10.0 mi West 3.5 mph - N/A   Scattered Clouds
3:56 PM 44.6 °F 43.1 °F 30.2 °F 57% 29.54 in 10.0 mi West 3.5 mph - N/A   Mostly Cloudy
4:16 PM 44.6 °F 39.2 °F 30.2 °F 57% 29.54 in 10.0 mi West 10.4 mph - N/A   Overcast
4:36 PM 44.6 °F 39.7 °F 28.4 °F 53% 29.54 in 10.0 mi West 9.2 mph - N/A   Mostly Cloudy
4:56 PM 44.6 °F 38.4 °F 30.2 °F 57% 29.54 in 10.0 mi West 12.7 mph - N/A   Overcast
5:16 PM 42.8 °F 39.3 °F 28.4 °F 57% 29.55 in 10.0 mi West 5.8 mph - N/A   Overcast
5:36 PM 42.8 °F 40.1 °F 30.2 °F 61% 29.55 in 10.0 mi South 4.6 mph - N/A   Overcast
5:56 PM 39.2 °F 35.9 °F 30.2 °F 70% 29.55 in 9.0 mi North 4.6 mph - N/A   Overcast
6:16 PM 39.2 °F 34.2 °F 32.0 °F 75% 29.54 in 10.0 mi NNE 6.9 mph - N/A   Overcast
6:36 PM 39.2 °F 37.0 °F 33.8 °F 81% 29.54 in 10.0 mi North 3.5 mph - N/A   Mostly Cloudy
6:56 PM 39.2 °F - 33.8 °F 81% 29.54 in 10.0 mi Calm Calm - N/A   Clear
7:16 PM 39.2 °F - 33.8 °F 81% 29.54 in 10.0 mi Calm Calm - N/A   Mostly Cloudy
7:36 PM 41.0 °F - 33.8 °F 76% 29.54 in 10.0 mi Calm Calm - N/A   Partly Cloudy
7:56 PM 41.0 °F 35.2 °F 26.6 °F 57% 29.54 in 10.0 mi West 9.2 mph - N/A   Clear
8:16 PM 39.2 °F 35.0 °F 28.4 °F 65% 29.54 in 10.0 mi West 5.8 mph - N/A   Mostly Cloudy
8:36 PM 39.2 °F 35.0 °F 28.4 °F 65% 29.54 in 10.0 mi West 5.8 mph - N/A   Overcast
8:56 PM 37.4 °F 32.1 °F 28.4 °F 70% 29.54 in 10.0 mi West 6.9 mph - N/A   Overcast
9:16 PM 37.4 °F 33.8 °F 30.2 °F 75% 29.54 in 10.0 mi West 4.6 mph - N/A   Overcast
9:36 PM 37.4 °F 33.8 °F 28.4 °F 70% 29.54 in 10.0 mi West 4.6 mph - N/A   Overcast
9:56 PM 33.8 °F - 28.4 °F 81% 29.54 in 10.0 mi Calm Calm - N/A   Mostly Cloudy
10:16 PM 33.8 °F - 28.4 °F 81% 29.54 in 10.0 mi Calm Calm - N/A   Clear
10:36 PM 32.0 °F - 26.6 °F 80% 29.54 in 10.0 mi Calm Calm - N/A   Clear
10:56 PM 30.2 °F 26.7 °F 26.6 °F 86% 29.54 in 10.0 mi East 3.5 mph - N/A   Scattered Clouds
11:16 PM 30.2 °F - 26.6 °F 86% 29.54 in 10.0 mi Calm Calm - N/A   Mostly Cloudy
11:36 PM 28.4 °F 23.3 °F 26.6 °F 93% 29.54 in 10.0 mi East 4.6 mph - N/A   Overcast
11:56 PM 28.4 °F 24.6 °F 26.6 °F 93% 29.53 in 10.0 mi East 3.5 mph - N/A   Overcast